Tracking 31030 objects as of 16-Jul-2025
HD Live streaming from Space Station
objects crossing your sky now

AETHER-1

Track AETHER-1 now!
10-day predictions


NORAD ID: 58281
Int'l Code: 2023-174AB
Perigee: 463.9 km
Apogee: 472.0 km
Inclination: 97.4 °
Period: 93.8 minutes
Semi major axis: 6838 km
RCS: Unknown
Launch date: November 11, 2023
Source: (CAN)
Launch site: AIR FORCE WESTERN TEST RANGE (AFWTR)
Your satellite tracking list
Your tracking list is empty




NASA's NSSDC Master Catalog

Two Line Element Set (TLE):
1 58281U 23174AB  25196.75586680  .00020349  00000-0  59983-3 0  9994
2 58281  97.4168 276.1127 0005940 282.7749  77.2831 15.35035935 93777
Source of the keplerian elements: AFSPC